SBI5307 UNNT-UNKL

Flight info

Callsign SBI5307
Flight time 1h 1m
Altitude 33000
Route OGATI A308 RISPA A366 KESED A309 ROTLI A300 RANET
Aircraft E170/M-SDE2E3FGHIRWXY/LB1

Departure

Time 2026-04-30 12:15
Airport Novosibirsk Tolmachevo Airport (UNNT)

Arrival

Time 2026-04-30 13:17
Airport Krasnoyarsk International Airport (UNKL)
Time Latitude Longitude Altitude Speed Heading
2026-04-30 11:52 55.01041 82.66831 371 ft 0 kts 170°
2026-04-30 12:08 55.01048 82.66829 371 ft 4 kts 175°
2026-04-30 12:09 55.01073 82.66828 371 ft 2 kts 173°
2026-04-30 12:09 55.01095 82.66820 371 ft 4 kts 154°
2026-04-30 12:09 55.01104 82.66793 371 ft 2 kts 85°
2026-04-30 12:09 55.01110 82.66758 371 ft 4 kts 147°
2026-04-30 12:10 55.01133 82.66746 371 ft 3 kts 170°
2026-04-30 12:10 55.01152 82.66741 371 ft 0 kts 170°
2026-04-30 12:12 55.01145 82.66743 371 ft 2 kts 170°
2026-04-30 12:12 55.01108 82.66741 371 ft 7 kts 213°
2026-04-30 12:13 55.01125 82.66652 371 ft 8 kts 350°
2026-04-30 12:13 55.01190 82.66636 371 ft 11 kts 354°
2026-04-30 12:13 55.01243 82.66625 371 ft 12 kts 352°
2026-04-30 12:13 55.01320 82.66606 371 ft 0 kts 353°
2026-04-30 12:14 55.01341 82.66605 371 ft 8 kts
2026-04-30 12:14 55.01379 82.66586 372 ft 6 kts 293°
2026-04-30 12:14 55.01377 82.66529 372 ft 0 kts 259°
2026-04-30 12:14 55.01361 82.66362 372 ft 49 kts 262°
2026-04-30 12:15 55.01262 82.65283 371 ft 129 kts 259°
2026-04-30 12:15 55.01095 82.63423 760 ft 164 kts 258°
2026-04-30 12:15 55.00874 82.61469 1779 ft 175 kts 256°
2026-04-30 12:15 55.00627 82.59276 2752 ft 192 kts 258°
2026-04-30 12:16 55.00378 82.56940 3575 ft 201 kts 259°
2026-04-30 12:16 55.00130 82.54455 4291 ft 216 kts 261°
2026-04-30 12:16 54.99942 82.51798 5021 ft 230 kts 270°
2026-04-30 12:16 55.00312 82.49100 5917 ft 229 kts 293°
2026-04-30 12:17 55.02109 82.44675 7930 ft 225 kts 323°
2026-04-30 12:17 55.02992 82.43855 8178 ft 245 kts 339°
2026-04-30 12:17 55.03378 82.43659 8292 ft 252 kts 346°
2026-04-30 12:18 55.05190 82.43677 8830 ft 277 kts 11°
2026-04-30 12:18 55.06978 82.45171 9504 ft 294 kts 38°
2026-04-30 12:18 55.08280 82.47953 10406 ft 302 kts 62°
2026-04-30 12:18 55.08824 82.51625 10719 ft 330 kts 90°
2026-04-30 12:19 55.08402 82.55683 11108 ft 350 kts 108°
2026-04-30 12:19 55.07530 82.59700 11834 ft 357 kts 112°
2026-04-30 12:19 55.06659 82.63790 12727 ft 362 kts 109°
2026-04-30 12:19 55.05900 82.68010 13674 ft 367 kts 107°
2026-04-30 12:20 55.05198 82.72312 14568 ft 373 kts 106°
2026-04-30 12:20 55.04495 82.76721 15484 ft 378 kts 106°
2026-04-30 12:20 55.03758 82.81158 16370 ft 383 kts 107°
2026-04-30 12:20 55.02987 82.85586 17169 ft 389 kts 108°
2026-04-30 12:21 55.02148 82.90114 17970 ft 395 kts 109°
2026-04-30 12:21 55.01244 82.94667 18760 ft 400 kts 110°
2026-04-30 12:21 55.00301 82.99265 19508 ft 405 kts 110°
2026-04-30 12:21 54.99328 83.03892 20243 ft 409 kts 110°
2026-04-30 12:22 54.98313 83.08556 20935 ft 414 kts 111°
2026-04-30 12:22 54.97247 83.13229 21584 ft 418 kts 112°
2026-04-30 12:22 54.96124 83.17928 22202 ft 422 kts 112°
2026-04-30 12:22 54.94963 83.22638 22818 ft 426 kts 113°
2026-04-30 12:23 54.93765 83.27385 23436 ft 430 kts 114°
2026-04-30 12:23 54.92533 83.32152 23998 ft 434 kts 114°
2026-04-30 12:23 54.91583 83.37137 24507 ft 436 kts 98°
2026-04-30 12:23 54.91243 83.42372 25095 ft 437 kts 92°
2026-04-30 12:24 54.91080 83.47668 25647 ft 440 kts 91°
2026-04-30 12:24 54.90911 83.53005 26165 ft 444 kts 91°
2026-04-30 12:24 54.90711 83.58374 26665 ft 447 kts 92°
2026-04-30 12:24 54.90495 83.63709 27150 ft 450 kts 92°
2026-04-30 12:25 54.90266 83.69146 27603 ft 453 kts 92°
2026-04-30 12:25 54.90031 83.74620 28045 ft 456 kts 92°
2026-04-30 12:25 54.89790 83.80129 28486 ft 458 kts 92°
2026-04-30 12:25 54.89547 83.85658 28919 ft 461 kts 92°
2026-04-30 12:26 54.89301 83.91227 29337 ft 464 kts 92°
2026-04-30 12:26 54.89051 83.96832 29737 ft 467 kts 92°
2026-04-30 12:26 54.88797 84.02468 30137 ft 469 kts 92°
2026-04-30 12:26 54.88540 84.08133 30496 ft 471 kts 91°
2026-04-30 12:27 54.88279 84.13822 30831 ft 473 kts 91°
2026-04-30 12:27 54.88016 84.19530 31147 ft 475 kts 91°
2026-04-30 12:27 54.87749 84.25235 31585 ft 473 kts 91°
2026-04-30 12:27 54.87481 84.30921 32036 ft 471 kts 91°
2026-04-30 12:28 54.87212 84.36571 32462 ft 470 kts 91°
2026-04-30 12:28 54.86942 84.42219 32856 ft 469 kts 91°
2026-04-30 12:28 54.86670 84.47857 33222 ft 467 kts 90°
2026-04-30 12:28 54.86397 84.53482 33221 ft 469 kts 90°
2026-04-30 12:29 54.85841 84.64846 33229 ft 474 kts 91°
2026-04-30 12:29 54.85263 84.76166 33230 ft 474 kts 91°
2026-04-30 12:30 54.84662 84.87569 33213 ft 474 kts 91°
2026-04-30 12:30 54.84056 84.98948 33215 ft 474 kts 91°
2026-04-30 12:31 54.83427 85.10359 33211 ft 475 kts 91°
2026-04-30 12:31 54.82821 85.21758 33211 ft 473 kts 87°
2026-04-30 12:32 54.83118 85.27365 33220 ft 463 kts 71°
2026-04-30 12:32 54.84321 85.32447 33228 ft 451 kts 53°
2026-04-30 12:32 54.86260 85.36651 33261 ft 444 kts 42°
2026-04-30 12:32 54.88402 85.40503 33231 ft 444 kts 41°
2026-04-30 12:33 54.92731 85.48146 33206 ft 443 kts 41°
2026-04-30 12:33 54.97031 85.55844 33216 ft 444 kts 41°
2026-04-30 12:34 55.01324 85.63577 33212 ft 444 kts 41°
2026-04-30 12:34 55.05606 85.71324 33217 ft 444 kts 41°
2026-04-30 12:35 55.09861 85.79046 33213 ft 444 kts 41°
2026-04-30 12:35 55.14136 85.86831 33213 ft 444 kts 41°
2026-04-30 12:36 55.18414 85.94647 33212 ft 444 kts 41°
2026-04-30 12:36 55.22683 86.02471 33208 ft 444 kts 41°
2026-04-30 12:37 55.26827 86.10520 33212 ft 451 kts 51°
2026-04-30 12:37 55.29588 86.20552 33207 ft 460 kts 62°
2026-04-30 12:38 55.32064 86.30835 33197 ft 460 kts 62°
2026-04-30 12:38 55.34565 86.41171 33211 ft 460 kts 62°
2026-04-30 12:39 55.37065 86.51514 33211 ft 460 kts 62°
2026-04-30 12:39 55.39558 86.61872 33219 ft 460 kts 62°
2026-04-30 12:40 55.39980 86.63630 33216 ft 460 kts 62°
2026-04-30 12:41 55.47053 86.93300 33219 ft 461 kts 62°
2026-04-30 12:41 55.49502 87.03673 33212 ft 461 kts 62°
2026-04-30 12:42 55.51956 87.14115 33214 ft 461 kts 62°
2026-04-30 12:42 55.54408 87.24602 33218 ft 461 kts 62°
2026-04-30 12:43 55.56851 87.35089 33220 ft 462 kts 62°
2026-04-30 12:43 55.59288 87.45592 33210 ft 462 kts 62°
2026-04-30 12:44 55.61722 87.56121 33213 ft 463 kts 62°
2026-04-30 12:44 55.64154 87.66656 33211 ft 462 kts 62°
2026-04-30 12:45 55.66582 87.77204 33217 ft 462 kts 62°
2026-04-30 12:45 55.69004 87.87772 33214 ft 463 kts 62°
2026-04-30 12:46 55.71420 87.98366 33207 ft 463 kts 62°
2026-04-30 12:46 55.73827 88.08977 33207 ft 464 kts 62°
2026-04-30 12:47 55.76214 88.19551 33208 ft 464 kts 63°
2026-04-30 12:47 55.78610 88.30221 33202 ft 464 kts 63°
2026-04-30 12:48 55.80981 88.40829 33207 ft 465 kts 63°
2026-04-30 12:48 55.83359 88.51523 33208 ft 465 kts 63°
2026-04-30 12:49 55.85730 88.62246 33205 ft 465 kts 63°
2026-04-30 12:49 55.88095 88.72991 33205 ft 466 kts 63°
2026-04-30 12:50 55.90449 88.83740 33209 ft 466 kts 63°
2026-04-30 12:50 55.92805 88.94550 33207 ft 466 kts 63°
2026-04-30 12:51 55.95140 89.05261 33207 ft 467 kts 63°
2026-04-30 12:51 55.97443 89.16100 33209 ft 467 kts 64°
2026-04-30 12:52 55.99739 89.26987 33207 ft 468 kts 63°
2026-04-30 12:52 56.02034 89.37872 33216 ft 468 kts 63°
2026-04-30 12:53 56.04325 89.48789 33212 ft 469 kts 64°
2026-04-30 12:53 56.06608 89.59727 33207 ft 469 kts 64°
2026-04-30 12:54 56.08882 89.70683 33212 ft 469 kts 64°
2026-04-30 12:54 56.11135 89.81597 33206 ft 470 kts 64°
2026-04-30 12:55 56.12261 89.87079 32963 ft 465 kts 64°
2026-04-30 12:55 56.13377 89.92521 32706 ft 466 kts 64°
2026-04-30 12:55 56.14129 89.96197 32518 ft 466 kts 64°
2026-04-30 12:55 56.15611 90.03452 32171 ft 467 kts 64°
2026-04-30 12:56 56.16348 90.07075 32009 ft 468 kts 64°
2026-04-30 12:56 56.17464 90.12570 31751 ft 468 kts 64°
2026-04-30 12:56 56.18575 90.18056 31498 ft 467 kts 64°
2026-04-30 12:56 56.19680 90.23533 31251 ft 465 kts 64°
2026-04-30 12:57 56.20778 90.28988 31073 ft 462 kts 64°
2026-04-30 12:57 56.21871 90.34427 30983 ft 467 kts 64°
2026-04-30 12:57 56.22981 90.39951 30136 ft 467 kts 65°
2026-04-30 12:57 56.24064 90.45392 29477 ft 457 kts 65°
2026-04-30 12:58 56.25125 90.50732 28891 ft 449 kts 65°
2026-04-30 12:58 56.26171 90.55989 28291 ft 444 kts 65°
2026-04-30 12:58 56.27048 90.61322 27714 ft 448 kts 75°
2026-04-30 12:58 56.27368 90.66924 27114 ft 451 kts 82°
2026-04-30 12:59 56.27495 90.72551 26507 ft 448 kts 84°
2026-04-30 12:59 56.27595 90.78134 25916 ft 444 kts 84°
2026-04-30 12:59 56.27705 90.83661 25339 ft 440 kts 83°
2026-04-30 12:59 56.27824 90.89076 24751 ft 436 kts 83°
2026-04-30 13:00 56.27948 90.94501 24187 ft 432 kts 83°
2026-04-30 13:00 56.28072 90.99883 23583 ft 428 kts 83°
2026-04-30 13:00 56.28196 91.05209 23053 ft 423 kts 83°
2026-04-30 13:00 56.28318 91.10476 22464 ft 420 kts 83°
2026-04-30 13:01 56.28202 91.15738 21954 ft 420 kts 92°
2026-04-30 13:01 56.27816 91.20943 21358 ft 418 kts 95°
2026-04-30 13:01 56.27373 91.26099 20855 ft 413 kts 95°
2026-04-30 13:01 56.26940 91.31160 20563 ft 408 kts 95°
2026-04-30 13:02 56.26517 91.36212 20357 ft 408 kts 95°
2026-04-30 13:02 56.26097 91.41281 20134 ft 408 kts 95°
2026-04-30 13:02 56.25680 91.46334 19889 ft 407 kts 95°
2026-04-30 13:02 56.25262 91.51353 19650 ft 405 kts 95°
2026-04-30 13:03 56.24844 91.56351 19409 ft 403 kts 95°
2026-04-30 13:03 56.24426 91.61339 19185 ft 401 kts 95°
2026-04-30 13:03 56.24013 91.66271 19246 ft 402 kts 94°
2026-04-30 13:03 56.24001 91.71209 18596 ft 397 kts 77°
2026-04-30 13:04 56.24506 91.76015 18019 ft 387 kts 73°
2026-04-30 13:04 56.25090 91.80689 17494 ft 379 kts 73°
2026-04-30 13:04 56.25653 91.85300 17019 ft 376 kts 73°
2026-04-30 13:04 56.26103 91.89122 16562 ft 375 kts 73°
2026-04-30 13:05 56.26629 91.93711 16099 ft 371 kts 74°
2026-04-30 13:05 56.27142 91.98264 15580 ft 371 kts 74°
2026-04-30 13:05 56.27647 92.02787 15074 ft 368 kts 75°
2026-04-30 13:06 56.28619 92.11605 14145 ft 351 kts 75°
2026-04-30 13:06 56.29084 92.15879 13683 ft 343 kts 75°
2026-04-30 13:06 56.29402 92.20094 13240 ft 338 kts 87°
2026-04-30 13:06 56.29253 92.24275 12810 ft 332 kts 93°
2026-04-30 13:07 56.28978 92.28375 12353 ft 328 kts 95°
2026-04-30 13:07 56.28699 92.32413 11922 ft 323 kts 95°
2026-04-30 13:07 56.28436 92.36392 11474 ft 319 kts 94°
2026-04-30 13:07 56.28185 92.40315 11091 ft 313 kts 94°
2026-04-30 13:08 56.27939 92.44187 10682 ft 310 kts 95°
2026-04-30 13:08 56.27690 92.48025 10264 ft 307 kts 95°
2026-04-30 13:08 56.27442 92.51813 9848 ft 303 kts 95°
2026-04-30 13:08 56.27197 92.55555 9444 ft 299 kts 95°
2026-04-30 13:09 56.26955 92.59244 9090 ft 295 kts 95°
2026-04-30 13:09 56.26715 92.62908 8665 ft 294 kts 96°
2026-04-30 13:09 56.26463 92.66549 8295 ft 291 kts 99°
2026-04-30 13:09 56.25870 92.70015 7895 ft 290 kts 112°
2026-04-30 13:10 56.25060 92.73363 7295 ft 296 kts 115°
2026-04-30 13:10 56.24217 92.76731 6893 ft 292 kts 115°
2026-04-30 13:10 56.23411 92.80009 6495 ft 289 kts 114°
2026-04-30 13:10 56.22473 92.83158 6015 ft 285 kts 132°
2026-04-30 13:11 56.20876 92.85074 5704 ft 270 kts 166°
2026-04-30 13:11 56.19098 92.85081 5452 ft 248 kts 201°
2026-04-30 13:11 56.17693 92.83505 5189 ft 233 kts 222°
2026-04-30 13:11 56.16456 92.81684 4908 ft 228 kts 218°
2026-04-30 13:12 56.15117 92.80146 4629 ft 228 kts 211°
2026-04-30 13:12 56.13695 92.78876 4319 ft 226 kts 207°
2026-04-30 13:12 56.12323 92.77630 3990 ft 216 kts 218°
2026-04-30 13:13 56.11410 92.73165 3264 ft 204 kts 291°
2026-04-30 13:13 56.12076 92.71040 3163 ft 187 kts 300°
2026-04-30 13:13 56.13052 92.67037 2787 ft 162 kts 291°
2026-04-30 13:14 56.13488 92.65260 2563 ft 156 kts 292°
2026-04-30 13:14 56.13934 92.63444 2367 ft 158 kts 291°
2026-04-30 13:14 56.14750 92.60006 1934 ft 140 kts 292°
2026-04-30 13:15 56.15125 92.58448 1732 ft 134 kts 292°
2026-04-30 13:15 56.15854 92.55363 1346 ft 134 kts 291°
2026-04-30 13:15 56.16221 92.53830 1205 ft 135 kts 292°
2026-04-30 13:16 56.16595 92.52263 1014 ft 136 kts 291°
2026-04-30 13:16 56.16945 92.50777 951 ft 117 kts 292°
2026-04-30 13:16 56.17195 92.49728 949 ft 59 kts 293°
2026-04-30 13:17 56.17387 92.48943 948 ft 28 kts 293°
2026-04-30 13:17 56.17475 92.48723 949 ft 16 kts 323°
2026-04-30 13:17 56.17606 92.48554 948 ft 8 kts 324°
2026-04-30 13:18 56.17676 92.48464 947 ft 15 kts 323°
2026-04-30 13:18 56.17815 92.48440 949 ft 10 kts 25°
2026-04-30 13:18 56.17877 92.48485 948 ft 11 kts 21°
2026-04-30 13:19 56.17918 92.48516 949 ft 2 kts 22°
2026-04-30 13:19 56.17937 92.48529 949 ft 1 kts 22°
2026-04-30 13:19 56.17938 92.48530 949 ft 0 kts 22°